Weather History for MMCM - January, 2013

Change the Weather History Date:

Tuesday, January 22, 2013

  Actual Average Record
Temperature  
Mean Temperature 77 °F -  
Max Temperature 91 °F 81 °F 91 °F (2013)
Min Temperature 63 °F 68 °F 55 °F (2009)
Cooling Degree Days 12    
Growing Degree Days 27 (Base 50)    
Moisture  
Dew Point 69 °F    
Average Humidity 75    
Maximum Humidity 95    
Minimum Humidity 41    
Precipitation  
Precipitation 0.00 in - - ()
Sea Level Pressure  
Sea Level Pressure 30.08 in    
Wind  
Wind Speed 3 mph ()    
Max Wind Speed 12 mph    
Max Gust Speed -    
Visibility 6.5 miles    
Events Rain    
Averages and records for this station are not official NWS values.
T = Trace of Precipitation, MM = Missing Value Source: Averaged Metar Reports

Daily Weather History Graph

Daily Weather History Graph

Search for Another Location

Airport or City:

Trip Planner

Search our weather history database for the weather conditions in past years. The results will help you decide how hot, cold, wet, or windy it might be!

Date:

Astronomy

Jan. 22, 2013 Rise Set
Actual Time 6:28 AM CST 5:41 PM CST
Civil Twilight 6:05 AM CST 6:04 PM CST
Nautical Twilight 5:38 AM CST 6:31 PM CST
Astronomical Twilight 5:12 AM CST 6:57 PM CST
Moon 2:09 PM CST (1/22) 2:44 AM CST (1/22)
Length of Visible Light 11h 59m
Length of Day
11h 13m
Waxing Gibbous, 83% of the Moon is Illuminated
Jan 22
Waxing Gibbous
Jan 26
Full
Feb 3
Last Quarter
Feb 10
New
Feb 17
First Quarter

Hourly Weather History & Observations

Time (CST) Temp. Heat Index Dew Point Humidity Pressure Visibility Wind Dir Wind Speed Gust Speed Precip Events Conditions
5:45 AM 65 °F - 64 °F 95% 30.07 in 5 mi NNW 2.2 mph - -   Scattered Clouds
6:45 AM 75.2 °F - 66.2 °F 73% 30.06 in 7.0 mi Calm Calm - N/A   Clear
7:45 AM 69.8 °F - 66.2 °F 88% 30.09 in 7.0 mi Calm Calm - N/A   Scattered Clouds
8:45 AM 72 °F - 67 °F 79% 30.12 in 6 mi NNW 4.5 mph - -   Scattered Clouds
8:45 AM 69.8 °F - 66.2 °F 88% 30.11 in 7.0 mi Calm Calm - N/A   Scattered Clouds
9:45 AM 73.4 °F - 66.2 °F 78% 30.12 in 7.0 mi Calm Calm - N/A   Scattered Clouds
10:45 AM 77.0 °F - 66.2 °F 69% 30.10 in 7.0 mi North 6.9 mph - N/A   Scattered Clouds
11:45 AM 80.6 °F 85.4 °F 73.4 °F 79% 30.08 in 7.0 mi North 6.9 mph - N/A   Scattered Clouds
11:50 AM 88 °F - 68 °F 41% 30.09 in 6 mi NNE 6.7 mph - -   Scattered Clouds
12:45 PM 84.2 °F 94.1 °F 77.0 °F 79% 30.05 in 7.0 mi North 6.9 mph - N/A   Scattered Clouds
1:45 PM 84.2 °F 94.1 °F 77.0 °F 79% 30.02 in 7.0 mi ENE 11.5 mph - N/A   Mostly Cloudy
2:45 PM 82.4 °F 88.2 °F 73.4 °F 74% 30.03 in 7.0 mi Calm Calm - N/A   Overcast
2:50 PM 85 °F - 67 °F 45% 30.03 in 6 mi East 4.5 mph - -   Mostly Cloudy
3:45 PM 80.6 °F 84.6 °F 71.6 °F 74% 30.04 in 7.0 mi Calm Calm - N/A   Overcast
4:45 PM 75.2 °F - 66.2 °F 73% 30.06 in 7.0 mi East 6.9 mph - N/A   Overcast
5:40 PM 75.2 °F - 66.2 °F 73% 30.08 in 7.0 mi East 6.9 mph - N/A   Overcast
5:50 PM 75 °F - 69 °F 77% 30.08 in 5 mi East 4.5 mph - - Rain Light Freezing Drizzle
6:45 PM 75.2 °F - 66.2 °F 73% 30.07 in 7.0 mi Calm Calm - N/A   Overcast
7:40 PM 75.2 °F - 66.2 °F 73% 30.09 in 7.0 mi Calm Calm - N/A   Overcast
8:40 PM 73.4 °F - 64.4 °F 73% 30.10 in 7.0 mi Calm Calm - N/A   Overcast
8:45 PM 74 °F - 71 °F 86% 30.12 in 5 mi ESE 4.5 mph - -   Overcast
11:50 PM 73 °F - 69 °F 83% 30.12 in 5 mi Calm Calm - -   Partly Cloudy